Clinton, OK (73601)

3:07 AM CDT on June 28, 2017 (GMT -0500)
Clinton Municipal | | Change Station

Elev 1614 ft 35.54 °N, 98.93 °W | Updated -1634 second ago

Clear
Clear
72 °F
Feels Like 72 °F
N
13
Wind Variable Wind from South

Today
High -- | Low -- °F
--% Chance of Precip.
Yesterday
High -- | Low -- °F
Precip. -- in
Pressure 29.91 in
Visibility 10.0 miles
Clouds Clear
Dew Point 63 °F
Humidity 73%
Rainfall 0.00 in
Snow Depth Not available.
6:23 AM 8:55 PM
Waxing Crescent, 23% visible
METAR KCLK 280835Z AUTO 17011KT 10SM CLR 22/17 A2991 RMK AO2
Pressure 29.91 in
Visibility 10.0 miles
Clouds Clear
Dew Point 63 °F
Humidity 73%
Rainfall 0.00 in
Snow Depth Not available.
6:23 AM 8:55 PM
Waxing Crescent, 23% visible
METAR KCLK 280835Z AUTO 17011KT 10SM CLR 22/17 A2991 RMK AO2

Get Severe Weather Alerts

Thanks for signing up!

Be on the lookout for a verification email in your inbox.

You'll start receiving the daily forecast at 6 AM.

×

10-Day Weather Forecast

Almanac

Astronomy

Jun. 28, 2017 Rise Set
Actual Time
Civil Twilight
Nautical Twilight
Astronomical Twilight
Moon
Length of Visible Light
Length of Day
Tomorrow will be .
, % of the Moon is Illuminated

Today's Extremes

State Highs State Lows

Community

WunderPhotos

Category 6

Welcome to Category 6. This is the collective home for Weather Underground's featured writeups by Dr. Jeff Masters (right), Bob Henson (left), Chris Burt, and other regular contributors.

Nearby

Air Quality

  Air Quality AQ Index Pollutant
Not available.

Snow Depth

Station Depth Elevation

Earthquake Activity

City Distance Mag. Time & Date
Minimum magnitude displayed is 2.5.

Coastal Water Temperatures

Place Temperature

Stations

Nearby Weather Stations

Station Location Temp. Windchill Dew Point Humidity Wind Precip. Elev Updated Type
                   

Watches & Warnings

There are currently no watches in effect.